Location: Oakland
(41.0130°N, 74.2650°W)
Time: 15:57:27
(UTC-04:00)

Daily predictions for brighter satellites

Satellite Brightness Start Highest point End
(mag) Time Altitude Azimuth Time Altitude Azimuth Time Altitude Azimuth
Lacrosse 5 3.5 19:59:44 10° NNW 20:03:39 22° NNE 20:07:34 10° ENE
OTV 4 1.2 20:03:43 10° W 20:06:32 40° S 20:09:21 10° ESE
EO 1 Delta rocket 4.4 20:02:12 10° NNE 20:06:38 40° E 20:11:38 10° SSE
Cosmos 1697 Rocket 4.0 20:04:31 10° SE 20:08:11 18° E 20:11:53 10° ENE
Meteor 1-29 3.6 20:07:57 10° N 20:11:22 61° WNW 20:14:48 10° SSW
Meteor 2-16 Rocket 4.5 20:05:44 10° S 20:11:42 64° E 20:17:43 10° NNE
Meteor 2-4 Rocket 4.0 20:06:15 10° N 20:12:07 84° W 20:18:03 10° S
Tiangong 1 1.4 20:09:16 10° W 20:12:22 64° N 20:15:26 10° ENE
Cosmos 2278 3.8 20:07:03 10° S 20:12:33 55° ESE 20:18:07 10° NNE
Helios 1B rocket 3.4 20:09:12 10° N 20:13:14 54° WNW 20:17:15 10° SSW
Cosmos 1821 Rocket 4.0 20:12:46 10° S 20:18:53 89° ESE 20:25:01 10° N
Cosmos 1975 3.8 20:15:24 10° SSE 20:18:55 28° E 20:22:27 10° NNE
Cosmos 1605 Rocket 4.1 20:15:47 10° SSE 20:21:56 55° E 20:28:03 10° NNE
Okean 2 3.4 20:19:01 10° N 20:23:13 89° E 20:27:22 10° S
Cosmos 2369 3.7 20:20:39 10° S 20:26:14 64° ESE 20:31:53 10° NNE
Lacrosse 5 rocket 1.5 20:23:18 10° NW 20:26:56 47° NE 20:29:46 15° ESE
NOSS 7 (D) 4.3 20:24:15 10° SSW 20:27:44 87° ESE 20:31:07 10° NE
H-2A R/B 2.7 20:24:05 10° SSE 20:27:56 72° ENE 20:31:52 10° N
Cosmos 1980 Rocket 3.6 20:27:20 10° SE 20:30:47 17° E 20:34:15 10° ENE
Meteor 1-12 Rocket 4.3 20:30:26 10° S 20:36:00 57° E 20:41:43 10° NNE
NOSS 3-4 (A) 4.0 20:30:05 10° NW 20:37:08 77° WSW 20:44:35 10° SSE
NOSS 3-4 (C) 4.0 20:30:12 10° NW 20:37:16 78° WSW 20:44:42 10° SSE
CZ-4 DEB 3.5 20:38:27 19° SE 20:40:11 33° ENE 20:43:04 10° N
Cosmos 2208 Rocket 4.4 20:39:53 10° SSW 20:45:10 69° WNW 20:50:34 10° NNE
CZ-2D R/B 3.8 20:42:45 10° S 20:46:33 59° W 20:50:25 10° NNW
H-2A R/B 3.3 20:46:30 19° E 20:47:59 23° ENE 20:51:14 10° NNE
Cosmos 1461 3.0 20:45:06 10° NW 20:49:09 67° WSW 20:52:18 15° SSE
OAO 2 Rocket 3.9 20:46:40 10° WSW 20:51:19 39° S 20:54:03 22° ESE
Cosmos 2123 Rocket 4.2 20:45:11 10° N 20:51:20 74° W 20:57:29 10° S
Cosmos 1626 Rocket 3.5 20:47:14 10° N 20:51:39 73° E 20:55:45 11° SSE
Cosmos 2298 Rocket 4.3 20:47:17 10° N 20:52:29 52° ENE 20:55:58 20° SE
Cosmos 1939 Rocket 3.5 20:50:49 21° SE 20:53:04 40° ENE 20:56:59 10° N
FENGYUN 3A 4.3 20:50:08 10° S 20:55:23 56° W 21:00:39 10° NNW
Cosmos 1455 Rocket 4.0 20:51:38 10° SSW 20:55:49 49° W 21:00:04 10° N
Cosmos 2227 Rocket 2.5 20:53:08 10° NNW 20:58:46 67° WSW 21:04:21 10° S
Cosmos 1656 3.6 20:54:46 10° SSW 21:00:21 69° ESE 21:05:53 10° NNE
Envisat 3.3 20:57:13 21° SE 21:00:23 49° ENE 21:05:16 10° N
Cosmos 1602 Rocket 3.5 20:56:01 10° N 21:00:31 90° W 21:04:38 12° S
deb Chang Zheng 4 4.4 20:56:47 10° NE 21:00:46 31° E 21:02:04 26° SE
Cosmos 1937 Rocket 4.0 20:58:55 10° N 21:03:56 43° ENE 21:06:21 27° ESE
Cosmos 1346 Rocket 4.4 21:00:24 10° NNW 21:04:01 35° W 21:07:38 10° SSW
Cosmos 1459 Rocket 4.2 20:59:08 10° SSE 21:04:48 47° E 21:10:36 10° NNE
Cosmos 1500 3.1 21:02:27 14° S 21:05:33 63° E 21:09:17 10° NNE
H-2A R/B 4.1 21:08:13 10° ENE 21:08:45 10° ENE 21:09:32 10° NE
Iridium 4 Rocket 3.3 21:04:39 10° N 21:09:48 87° W 21:14:17 11° S
ALOS 3.9 21:06:12 10° SSW 21:10:24 33° W 21:14:39 10° NNW
Cosmos 2082 4.3 21:07:31 10° NNW 21:12:59 54° WSW 21:18:05 12° S
Cosmos 2084 3.4 21:09:20 10° NNW 21:13:23 66° NE 21:14:49 39° ESE
Cosmos 2297 Rocket 2.4 21:08:37 10° NNW 21:14:16 70° WSW 21:18:31 18° S
Cosmos 220 Rocket 4.3 21:14:13 10° NNW 21:18:24 62° WSW 21:20:50 23° S
Cosmos 1340 3.5 21:15:04 10° N 21:18:24 33° ENE 21:18:24 33° ENE
Cosmos 2150 Rocket 3.9 21:13:50 10° NNW 21:19:00 77° ENE 21:21:30 31° SSE
RESURS DK-1 2.7 21:16:37 10° NNW 21:20:38 47° ENE 21:21:23 42° E
CZ-3C R/B 4.2 20:48:32 10° W 21:21:58 28° SW 21:28:19 16° SSE
Cosmos 2058 Rocket 4.3 21:26:13 26° ENE 21:26:13 26° ENE 21:29:07 10° NNE
USA 186 4.4 21:23:06 10° SW 21:25:24 18° W 21:27:36 10° NW
YAOGAN 6 3.5 21:26:58 34° ENE 21:26:58 34° ENE 21:29:57 10° N
SPOT 1/Viking Rocket 4.4 21:26:21 31° E 21:27:15 33° ENE 21:31:53 10° N
Cosmos 1515 4.4 21:24:58 10° NNW 21:28:44 53° W 21:30:46 24° SSW
DELTA 2 R/B (1) 3.8 21:23:50 10° W 21:29:16 57° SSW 21:31:01 40° SE
BREEZE-M DEB (TANK) 3.8 21:13:52 10° WSW 21:29:32 80° SSE 21:32:42 23° ENE
ERS-1 Rocket 3.3 21:27:56 20° S 21:31:24 65° WSW 21:36:25 10° NNW
Cosmos 1606 Rocket 3.6 21:34:01 54° ESE 21:34:15 55° E 21:38:35 10° NNE
Cosmos 1802 Rocket 4.0 21:29:34 18° S 21:34:31 71° E 21:40:56 10° NNE
MetOp-A 4.2 21:34:09 42° SE 21:35:45 60° ENE 21:41:03 10° N
Cosmos 1743 2.6 21:40:00 63° SSW 21:40:36 87° W 21:44:32 10° N
Cosmos 1898 Rocket 3.8 21:35:48 10° NNW 21:41:03 64° WSW 21:43:26 32° S
OTV 4 3.2 21:40:30 10° WSW 21:41:08 13° SW 21:41:08 13° SW
Cosmos 1763 Rocket 3.4 21:43:23 53° SE 21:44:10 60° ESE 21:49:11 10° NNE
Cosmos 1125 Rocket 4.4 21:42:31 10° N 21:47:09 31° ENE 21:47:16 31° ENE
Lacrosse 5 1.7 21:42:12 10° NW 21:47:17 84° NE 21:48:07 62° ESE
Tiangong 1 2.5 21:45:54 10° WNW 21:47:55 37° WNW 21:47:55 37° WNW
Cosmos 2016 Rocket 3.8 21:47:11 32° S 21:50:13 78° E 21:56:26 10° N
Cosmos 1697 Rocket 3.1 21:45:59 10° SW 21:51:35 62° WNW 21:57:12 10° NNE
SPOT 5 2.9 21:50:56 53° S 21:52:09 86° WSW 21:57:02 10° NNW
SL-16 R/B 3.8 22:00:58 21° ENE 22:00:58 21° ENE 22:03:06 10° NE
Cosmos 1726 Rocket 3.5 21:58:23 79° NNE 21:58:23 79° NNE 22:02:33 10° N
SL-08 RB Rocket 4.3 22:01:28 45° NE 22:01:28 45° NE 22:05:20 10° N
NOAA 11 4.2 22:00:38 60° E 22:01:06 63° ENE 22:06:31 10° N
USA 215 3.9 22:00:24 33° E 22:02:49 46° NNE 22:09:00 10° NW
Cosmos 2173 Rocket 4.4 21:56:38 10° SSW 22:02:55 62° W 22:09:13 10° N
Cosmos 1842 4.2 22:01:40 10° N 22:04:21 41° N 22:04:21 41° N
Cosmos 841 Rocket 3.3 22:05:13 73° S 22:05:44 84° ESE 22:11:00 10° NNE
Lacrosse 5 rocket 3.4 22:03:26 10° W 22:05:31 16° WSW 22:05:31 16° WSW
Cosmos 1825 Rocket 4.4 22:07:43 10° NNW 22:11:56 44° W 22:12:30 42° WSW
ARGOS 3.0 22:12:12 76° E 22:12:21 77° ENE 22:17:45 10° N
Cosmos 1980 Rocket 2.5 22:08:30 10° SSW 22:14:08 67° WNW 22:19:50 10° NNE
Cosmos 1864 Rocket 4.3 22:17:11 67° S 22:18:03 85° E 22:24:13 10° N
Cosmos 967 Rocket 4.3 22:12:47 10° NNW 22:19:11 82° WSW 22:19:56 70° S
Cosmos 1953 Rocket 4.3 22:17:17 10° NNW 22:21:30 48° W 22:21:30 48° W
Tsikada Rocket 3.9 22:16:13 10° N 22:22:41 87° E 22:23:28 71° SSE
H-2A R/B 3.6 22:23:39 28° WSW 22:23:52 28° W 22:27:27 10° NW
Meteor 1-15 Rocket 4.2 22:24:50 81° S 22:25:10 90° ESE 22:31:05 10° N
Terra 3.1 22:28:05 33° NNE 22:28:05 33° NNE 22:31:05 10° N
Milstar 3 Cent rocket 4.3 22:16:09 10° W 22:32:16 40° SSW 22:34:14 37° S
Cosmos 2263 Rocket 3.0 22:37:33 10° NNW 22:41:51 40° NNE 22:41:51 40° NNE
Cosmos 2322 Rocket 3.0 22:48:05 44° NNE 22:48:05 44° NNE 22:51:50 10° NNE
Cosmos 1816 Rocket 4.5 22:40:21 10° N 22:46:44 78° W 22:46:49 78° WSW
H-2A R/B 2.8 22:48:51 47° N 22:48:51 47° N 22:52:22 10° NNW
Cosmos 1725 Rocket 4.5 22:47:52 46° WSW 22:49:12 54° W 22:55:20 10° N
Cosmos 2233 Rocket 4.5 23:15:54 54° WNW 23:15:54 54° WNW 23:21:43 10° N
SL-16 R/B 3.6 23:42:47 35° NW 23:42:47 35° NW 23:47:20 10° N
USA 215 4.1 23:47:44 42° WNW 23:47:44 42° WNW 23:52:09 10° NW
